Regional Weather Roundup
Issued by NWS

Home | Current Version | Previous Version | Text Only | Print | Product List | Glossary On
Versions: 1 2 3 4 5 6 7 8 9 10 11 12 13 14 15 16 17 18 19 20 21 22 23 24 25 26 27 28 29 30 31 32 33 34 35 36 37 38 39 40 41 42 43 44 45 46 47 48 49 50
000
ASUS46 KSTO 280915
RWRCA

NORTHERN AND CENTRAL CA REGIONAL WEATHER ROUNDUP
NATIONAL WEATHER SERVICE SACRAMENTO CA
200 AM PDT SUN AUG 28 2016

NOTE: FAIR INDICATES FEW OR NO CLOUDS BELOW 12,000 FEET WITH NO
SIGNIFICANT WEATHER AND/OR OBSTRUCTIONS TO VISIBILITY.

CAZ001-003-281000-
NORTHWEST AREA

CITY           SKY/WX    TMP DP  RH WIND       PRES   REMARKS
CRESCENT CITY  CLOUDY    54  53  97 W3        30.05F FOG
UKIAH          CLEAR     56  51  84 S7        30.04R
$$

CAZ006-505>513-281000-
BAY AREA

CITY           SKY/WX    TMP DP  RH WIND       PRES   REMARKS
SANTA ROSA     CLOUDY    58  54  86 CALM      30.04R
SAN RAFAEL     N/A       MM  MM  MM MISG
NAPA           MOCLDY    56  53  90 W3        30.05R
CONCORD        CLOUDY    60  52  74 SW6       30.04S
OAKLAND CITY   N/A       64  MM  MM MISG
OAKLAND        CLOUDY    63  55  75 W13       30.05S
SAN FRAN CITY  N/A       59  MM  76 MISG
SAN FRAN ARPT  PTCLDY    60  52  74 SW6       30.05S
LIVERMORE      MOCLDY    57  52  83 W5        30.03S
HAYWARD        CLOUDY    63  52  67 W7        30.04S
REDWOOD CITY   N/A       58  MM  82 MISG
MOFFETT ARPT   CLOUDY    63  55  75 CALM      30.05S
SAN JOSE ARPT  CLOUDY    62  54  74 NW3       30.04S
$$
CAZ034-037-514>518-281000-
CENTRAL COAST

CITY           SKY/WX    TMP DP  RH WIND       PRES   REMARKS
WATSONVILLE    CLOUDY    56  54  93 CALM      30.05F
SALINAS        CLOUDY    59  52  77 CALM      30.05S
MONTEREY       CLOUDY    57  52  83 E5        30.05F
SAN LUIS OBISP CLOUDY    61  56  83 N7        30.03R
SANTA MARIA    CLEAR     55  55 100 CALM      30.03S
$$
CAZ015-016-281000-
NORTHERN SACRAMENTO VALLEY

CITY           SKY/WX    TMP DP  RH WIND       PRES   REMARKS
REDDING        CLEAR     69  53  56 N3        29.99R
RED BLUFF      CLEAR     68  54  60 SE5       29.99R
OROVILLE       CLEAR     63  53  70 SE3       29.99R
$$
CAZ016>018-281000-
SOUTHERN SACRAMENTO VALLEY

CITY           SKY/WX    TMP DP  RH WIND       PRES   REMARKS
AUBURN         CLEAR     64  48  55 E6        30.03F
BEALE AFB      CLEAR     65  52  60 SE13      29.97R
LINCOLN        FAIR      63  50  63 SE12      29.99R
MARYSVILLE     CLEAR     62  52  69 SE8       29.99R
SAC INTL ARPT  CLEAR     60  51  72 S10       29.97R
MATHER AIRPORT NOT AVBL
DOWNTOWN SAC   N/A       59  MM  MM MISG
SAC EXEC ARPT  CLEAR     58  52  80 S10G21    30.00R
VACAVILLE      CLEAR     63  49  60 SW7       29.98R
TRAVIS AFB     CLEAR     58  52  80 SW22G29   29.97R
$$
CAZ019>021-281000-
SAN JOAQUIN VALLEY

CITY           SKY/WX    TMP DP  RH WIND       PRES   REMARKS
STOCKTON       CLEAR     59  55  87 N9        30.00S
MODESTO        CLEAR     63  54  72 N9        29.99R
MERCED         CLEAR     63  54  72 NW7       29.98R
LEMOORE        CLEAR     67  49  52 NW8       29.99R
FRESNO         CLEAR     70  56  61 NW7       29.98S
HANFORD        CLEAR     68  55  63 NW8       29.98S
PORTERVILLE    CLEAR     68  55  63 CALM      29.98S
BAKERSFIELD    CLEAR     75  49  39 CALM      29.97S
$$
CAZ011-012-071-281000-
NORTHERN MOUNTAINS

CITY           SKY/WX    TMP DP  RH WIND       PRES   REMARKS
YREKA          CLEAR     59  38  45 CALM      30.06R
MOUNT SHASTA   CLEAR     55  41  59 CALM      30.12R
ALTURAS        CLEAR     56  36  47 E3        30.15R
$$
CAZ011-012-071-281000-
SIERRA NEVADA MTNS

CITY           SKY/WX    TMP DP  RH WIND       PRES   REMARKS
BLUE CANYON    CLEAR     65  35  33 CALM      30.23R
TRUCKEE        CLEAR     39  32  75 CALM      30.27S
TAHOE VLY ARPT CLEAR     45  34  65 CALM      30.27S
MAMMOTH LAKES  FAIR      52  34  49 CALM      30.31S
$$




USA.gov is the U.S. government's official web portal to all federal, state and local government web resources and services.